[[{"header":{"parameterUnit":"m.s-1","parameterCategory":2,"la1":30.2991,"la2":30.254,"lo1":-89.0895,"lo2":-89.0444,"dy":0.0017,"dx":0.0017,"nx":28,"ny":28,"refTime":"2025-08-03T03:00:00:Z","depth":"0","parameterNumber":2,"parameterNumberName":"U-component_of_CURRENTS"},"data":[0,0,0,0,0,0,0,0,0,0,0,0,0,0,0,0,0,0,0,0,0,0,0,0,0,0,0,0,0,0,0,0,0,0,0,0,0,0,0,0,0,0,0,0,0,0,0,0,0,0,0,0,0,0,0,0,0,0,0.3456,0.3456,0,0.3536,0.3538,0.3539,0.3539,0.3538,0.3536,0.3535,0.3643,0.3647,0.3651,0,0,0,0,0,0,0,0,0,0,0,0,0,0.3439,0.3439,0.3456,0.3456,0.3457,0.3536,0.3538,0.3539,0.354,0.3538,0.3536,0.3534,0.3641,0.3646,0.3651,0,0,0,0,0,0,0,0,0,0,0,0,0,0.348,0.3439,0.3455,0.3463,0.3464,0.3536,0.3538,0.354,0.354,0.3538,0.3535,0.3533,0.3639,0.3646,0.3652,0.3737,0,0,0.3672,0.3674,0,0,0,0,0,0,0,0,0.3478,0.3481,0.3461,0.3462,0.3463,0.3521,0.3571,0.3605,0.3541,0.3516,0.3535,0.3532,0.3603,0.3612,0.3639,0.3742,0.3746,0.3672,0.3676,0.3679,0.3681,0,0,0,0,0,0,0,0.3475,0.3478,0.3493,0.3462,0.3463,0.3509,0.3511,0.3579,0.3576,0.3518,0.3517,0.3519,0.3604,0.3633,0.3642,0.3748,0.3672,0.3678,0.3682,0.3684,0.4026,0.4031,0,0,0,0,0,0,0.345,0.3475,0.349,0.3495,0.3459,0.351,0.3513,0.3509,0.3574,0.358,0.3521,0.3519,0.3623,0.3634,0.3645,0.3859,0.3679,0.3685,0.3688,0.4021,0.4027,0.4033,0,0,0,0,0,0,0.3449,0.345,0.3487,0.3483,0.349,0.3511,0.3507,0.3512,0.354,0.3575,0.3582,0.3543,0.3622,0.3636,0.3737,0.3858,0.3688,0.3693,0.4014,0.4023,0.403,0.4215,0,0,0,0,0,0,0.3448,0.345,0.3458,0.3481,0.3489,0.3566,0.3509,0.3515,0.3542,0.354,0.3598,0.3605,0.3621,0.3728,0.3744,0.3864,0.3698,0.4008,0.4018,0.4027,0.4202,0.4228,0.4251,0,0,0,0,0,0.3447,0.3481,0.3458,0.3461,0.3493,0.3569,0.3581,0.359,0.3545,0.3599,0.3627,0.3603,0.3802,0.3737,0.3755,0.3879,0.4003,0.4015,0.4027,0.4192,0.4223,0.425,0,0,0,0,0,0,0.3485,0.3484,0.346,0.349,0.3534,0.3568,0.3615,0.36,0.3663,0.3653,0.3663,0.3678,0.3815,0.3819,0.3747,0.4008,0.3903,0.3919,0.4023,0.4053,0.4076,0.4177,0.3704,0,0,0,0,0,0.3491,0.352,0.3526,0.3563,0.3578,0.3591,0.3621,0.3623,0.3667,0.369,0.3721,0.3778,0.3883,0.3937,0.4009,0.4147,0.4174,0.4242,0.4266,0.4286,0.4382,0.4509,0.4554,0.4071,0.4071,0.4071,0,0,0.3523,0.3523,0.3543,0.3575,0.3601,0.3709,0.3608,0.3666,0.3783,0.3696,0.3854,0.3857,0.3934,0.4097,0.4161,0.4114,0.4427,0.4301,0.4318,0.4405,0.4526,0.4573,0.4615,0.4079,0.4078,0.4077,0,0,0.3658,0.3593,0.3693,0.3734,0.3774,0.3788,0.3804,0.3838,0.3878,0.4011,0.399,0.4082,0.4202,0.4309,0.4376,0.4585,0.4541,0.4571,0.4794,0.4914,0.4956,0.4993,0.5034,0.5074,0.4594,0.4594,0.4594,0,0.3703,0.38,0.3743,0.3862,0.3905,0.3835,0.3968,0.4036,0.4104,0.4168,0.4095,0.4309,0.4349,0.4599,0.4682,0.4653,0.4663,0.4668,0.4948,0.4985,0.502,0.5054,0.5095,0.4605,0.4603,0.4602,0.4601,0,0.3934,0.4007,0.4067,0.4185,0.4233,0.4317,0.4365,0.4435,0.4427,0.4483,0.4659,0.4696,0.482,0.485,0.4853,0.5122,0.5026,0.4946,0.4871,0.508,0.5101,0.5141,0.4619,0.4616,0.4613,0.461,0,0,0.4041,0.4199,0.422,0.4308,0.4382,0.4447,0.4632,0.4776,0.4874,0.4959,0.5114,0.5317,0.5246,0.5324,0.5289,0.5429,0.5658,0.5313,0.5314,0.5353,0.5869,0.5694,0.5718,0.5598,0.5607,0.5615,0.5764,0,0.4241,0.4501,0.4514,0.4749,0.4873,0.4848,0.5007,0.5119,0.5164,0.5289,0.5376,0.5489,0.5452,0.5453,0.5616,0.5614,0.5781,0.5623,0.5669,0.5672,0.549,0.5767,0.5483,0.5585,0.5802,0.5808,0.5813,0,0.4468,0.4602,0.485,0.4997,0.5037,0.515,0.5284,0.5418,0.5577,0.5601,0.5734,0.5721,0.5948,0.5831,0.6083,0.5959,0.5998,0.6008,0.601,0.5838,0.5576,0.5426,0.5648,0.5462,0.5873,0.5868,0.5864,0,0.4573,0.4821,0.5001,0.506,0.5231,0.5315,0.5387,0.5521,0.5596,0.577,0.5795,0.6013,0.6044,0.6207,0.6228,0.6162,0.6443,0.632,0.6233,0.6213,0.5991,0.5938,0.6055,0.6602,0.6602,0.6601,0.6601,0,0.4747,0.4895,0.5058,0.5155,0.5321,0.5401,0.5539,0.563,0.5736,0.58,0.5926,0.5982,0.6142,0.626,0.633,0.6396,0.6529,0.6381,0.6303,0.6035,0.5987,0.5824,0.574,0.6607,0.6606,0.6605,0.6604,0,0.4825,0.4942,0.5151,0.5335,0.5373,0.5481,0.5566,0.5635,0.5745,0.5819,0.5864,0.6,0.6115,0.6255,0.6448,0.6454,0.6375,0.6564,0.6202,0.6083,0.578,0.5715,0.5667,0.551,0.6511,0.6508,0.6506,0,0.4898,0.5022,0.5225,0.5272,0.5335,0.547,0.5502,0.5623,0.5645,0.5791,0.5795,0.595,0.5995,0.6218,0.6257,0.6381,0.6255,0.6207,0.6096,0.5836,0.5709,0.5518,0.5376,0.5843,0.5836,0.583,0.5825,0,0.5004,0.5055,0.518,0.5266,0.5316,0.5381,0.5434,0.5453,0.554,0.5585,0.5605,0.5678,0.5839,0.581,0.5976,0.602,0.5866,0.6082,0.5949,0.5374,0.505,0.4826,0.5614,0.5772,0.5777,0.5781,0.5784,0.5786,0.5028,0.5086,0.5177,0.5224,0.5261,0.5214,0.518,0.5198,0.5191,0.515,0.5336,0.5352,0.5464,0.5613,0.5624,0.5419,0.5465,0.5282,0.5276,0.5146,0.487,0.5523,0.5494,0.5497,0.5501,0.5503,0.5506,0,0.5024,0.504,0.5098,0.5106,0.5038,0.5091,0.5041,0.4923,0.4797,0.4874,0.4866,0.4923,0.4909,0.4994,0.4859,0.4667,0.4507,0.4542,0.424,0.4182,0.4884,0.4727,0.4365,0.4365,0.4365,0.4365,0.4365,0.4366,0.5024,0.5025,0.5013,0.486,0.4818,0.4625,0.4543,0.4393,0.4379,0.4223,0.4215,0.4329,0.4468,0.4449,0.4201,0.4092,0.3799,0.36,0.3663,0.416,0.4228,0.4292,0.4129,0.3647,0.3646,0.2759,0.2752,0.2747]},{"header":{"parameterUnit":"m.s-1","parameterCategory":2,"la1":30.2991,"la2":30.254,"lo1":-89.0895,"lo2":-89.0444,"dy":0.0017,"dx":0.0017,"nx":28,"ny":28,"refTime":"2025-08-03T03:00:00:Z","depth":"0","parameterNumber":3,"parameterNumberName":"V-component_of_CURRENTS"},"data":[0,0,0,0,0,0,0,0,0,0,0,0,0,0,0,0,0,0,0,0,0,0,0,0,0,0,0,0,0,0,0,0,0,0,0,0,0,0,0,0,0,0,0,0,0,0,0,0,0,0,0,0,0,0,0,0,0,0,0.0104,0.0103,0,0.0028,0.0027,0.0026,-0.0041,-0.0042,-0.0042,-0.0043,-0.0134,-0.0136,-0.0138,0,0,0,0,0,0,0,0,0,0,0,0,0,0.0131,0.0131,0.0104,0.0103,0.0102,0.0028,0.0027,0.0026,-0.0041,-0.0042,-0.0042,-0.0043,-0.0134,-0.0136,-0.0138,0,0,0,0,0,0,0,0,0,0,0,0,0,0.0092,0.0131,0.0104,0.0061,0.0057,0.0028,0.0027,0.0025,-0.0041,-0.0042,-0.0043,-0.0044,-0.0133,-0.0136,-0.0138,-0.0136,0,0,-0.0147,-0.0148,0,0,0,0,0,0,0,0,0.0095,0.0091,0.0068,0.0064,0.0059,0.0003,0.0003,-0.0029,-0.004,-0.0005,-0.0043,-0.0044,-0.0088,-0.0095,-0.0109,-0.014,-0.0144,-0.0147,-0.0149,-0.015,-0.0151,0,0,0,0,0,0,0,0.0097,0.0094,0.0072,0.0068,0.0062,0.0025,0.0019,-0.0004,-0.0042,-0.0008,-0.0013,-0.0019,-0.0091,-0.0106,-0.0111,-0.0146,-0.0147,-0.0149,-0.0151,-0.0152,-0.0114,-0.0112,0,0,0,0,0,0,0.0114,0.0097,0.0075,0.007,0.0076,0.0026,0.0019,0.0021,-0.0041,-0.0051,-0.0018,-0.0022,-0.0101,-0.0108,-0.0115,-0.0041,-0.015,-0.0153,-0.0154,-0.0117,-0.0114,-0.0111,0,0,0,0,0,0,0.0115,0.0113,0.0078,0.0082,0.0075,0.0027,0.0029,0.002,0.0007,-0.0048,-0.0059,-0.0021,-0.0102,-0.0111,-0.011,-0.0048,-0.0154,-0.0156,-0.012,-0.0116,-0.0112,0.0059,0,0,0,0,0,0,0.0116,0.0114,0.0123,0.0084,0.0076,0.0089,0.003,0.0019,0.0005,-0.0,-0.0054,-0.0064,-0.0103,-0.0106,-0.0113,-0.0054,-0.0158,-0.0123,-0.0118,-0.0113,0.005,0.0068,0.0084,0,0,0,0,0,0.0118,0.0147,0.0124,0.0121,0.0089,0.0091,0.0084,0.0044,0.0006,0.0023,-0.0014,-0.0062,-0.0079,-0.0106,-0.0115,-0.0055,-0.0126,-0.012,-0.0114,0.0042,0.0065,0.0084,0,0,0,0,0,0,0.0165,0.0142,0.0116,0.0136,0.0123,0.0081,0.0087,0.0053,0.0034,0.0024,-0.0037,-0.0047,-0.0018,-0.0063,-0.0092,-0.0028,-0.0106,-0.0102,0.0016,0.0036,0.0053,0.0131,-0.0161,0,0,0,0,0,0.018,0.0194,0.0164,0.0181,0.0176,0.0129,0.0121,0.0097,0.0072,0.006,0.0022,-0.0006,0.0,-0.0005,-0.0018,0.0007,0.001,0.0042,0.006,0.0074,0.0133,0.022,0.0252,-0.0091,-0.0091,-0.0091,0,0,0.0205,0.0191,0.02,0.0191,0.017,0.02,0.0122,0.0125,0.016,0.0055,0.0084,0.0049,0.002,0.006,0.0069,0.0029,0.016,0.0082,0.0095,0.0147,0.023,0.0264,0.0294,-0.0087,-0.0088,-0.0088,0,0,0.0278,0.0247,0.029,0.0288,0.0272,0.025,0.0258,0.0224,0.0219,0.0241,0.0189,0.0207,0.0176,0.0195,0.0197,0.0302,0.025,0.0274,0.0424,0.0507,0.0537,0.0564,0.056,0.0585,0.0281,0.0282,0.0282,0,0.0307,0.0352,0.0305,0.0346,0.0355,0.0285,0.0339,0.0337,0.0311,0.0338,0.0277,0.0312,0.0266,0.0368,0.0399,0.0349,0.0352,0.0346,0.0534,0.0561,0.0586,0.0575,0.0601,0.029,0.0289,0.0288,0.0288,0,0.0416,0.0448,0.0473,0.0503,0.051,0.0541,0.0528,0.0544,0.0516,0.0521,0.0596,0.0552,0.0583,0.0565,0.0512,0.0664,0.0591,0.0547,0.049,0.0632,0.0609,0.0633,0.0303,0.03,0.0297,0.0295,0,0,0.0487,0.0543,0.055,0.0582,0.0591,0.0606,0.0679,0.0735,0.0798,0.0793,0.0899,0.0913,0.0885,0.0888,0.0828,0.0895,0.1027,0.0803,0.0802,0.0813,0.1162,0.105,0.1063,0.1019,0.1025,0.103,0.1057,0,0.0585,0.0691,0.0696,0.0793,0.0837,0.0815,0.0889,0.0929,0.0949,0.103,0.1045,0.1106,0.101,0.102,0.1089,0.1056,0.1108,0.1021,0.1013,0.1012,0.0911,0.1096,0.1005,0.1019,0.108,0.1084,0.1086,0,0.0686,0.0741,0.0855,0.0928,0.0947,0.0999,0.1086,0.1144,0.1248,0.127,0.1358,0.1349,0.1459,0.1337,0.1425,0.1372,0.13,0.1259,0.1258,0.1131,0.0951,0.0898,0.1059,0.0788,0.1122,0.1119,0.1117,0,0.0734,0.0844,0.0934,0.0958,0.104,0.1095,0.1135,0.1224,0.1305,0.1428,0.1514,0.1611,0.1674,0.167,0.1577,0.1519,0.1645,0.1538,0.1369,0.1353,0.1269,0.1238,0.1195,0.162,0.162,0.162,0.162,0,0.082,0.0889,0.0963,0.1007,0.1125,0.1146,0.1283,0.1336,0.1466,0.1618,0.164,0.1793,0.1773,0.182,0.1698,0.1628,0.1742,0.1462,0.1403,0.1314,0.1288,0.1037,0.0892,0.1621,0.162,0.162,0.162,0,0.0859,0.0909,0.1012,0.1111,0.1148,0.1221,0.1359,0.147,0.1568,0.1774,0.1832,0.1981,0.2061,0.198,0.1966,0.1783,0.1544,0.1623,0.1474,0.1399,0.0966,0.0833,0.0778,0.0669,0.1472,0.147,0.1468,0,0.0896,0.0953,0.1071,0.114,0.119,0.1303,0.14,0.1506,0.1636,0.1905,0.2029,0.2176,0.2333,0.2246,0.197,0.176,0.1516,0.1445,0.1335,0.0997,0.0808,0.0713,0.0619,0.1254,0.1251,0.1248,0.1246,0,0.0965,0.0996,0.1076,0.1213,0.1317,0.1453,0.1595,0.1719,0.189,0.21,0.2394,0.2555,0.2476,0.2299,0.1945,0.1735,0.1223,0.1381,0.1123,0.0745,0.056,0.0404,0.1102,0.1223,0.1225,0.1227,0.1228,0.1229,0.1006,0.1067,0.1166,0.1301,0.1426,0.16,0.1738,0.1935,0.2189,0.2542,0.2649,0.2953,0.2543,0.2112,0.1767,0.0992,0.1084,0.074,0.0636,0.0592,0.043,0.1038,0.1031,0.1032,0.1033,0.1034,0.1035,0,0.1058,0.1129,0.1256,0.1415,0.1561,0.1622,0.1876,0.2061,0.2393,0.275,0.3034,0.3024,0.2463,0.1862,0.0844,0.0333,0.016,0.0055,-0.0096,-0.0132,0.0488,0.0415,0.0166,0.0166,0.0166,0.0166,0.0167,0.0167,0.109,0.1196,0.1264,0.15,0.1623,0.1853,0.2012,0.2325,0.2625,0.3081,0.332,0.3486,0.2924,0.11,-0.0106,-0.0346,-0.0688,-0.0768,-0.0865,-0.0494,-0.0439,-0.0386,-0.0488,-0.0922,-0.0923,-0.1463,-0.1469,-0.1474]}],[{"header":{"parameterUnit":"m.s-1","parameterCategory":2,"la1":30.2991,"la2":30.254,"lo1":-89.0895,"lo2":-89.0444,"dy":0.0017,"dx":0.0017,"nx":28,"ny":28,"refTime":"2025-08-03T03:00:00:Z","depth":"2","parameterNumber":2,"parameterNumberName":"U-component_of_CURRENTS"},"data":[0,0,0,0,0,0,0,0,0,0,0,0,0,0,0,0,0,0,0,0,0,0,0,0,0,0,0,0,0,0,0,0,0,0,0,0,0,0,0,0,0,0,0,0,0,0,0,0,0,0,0,0,0,0,0,0,0,0,0.2689,0.269,0,0.2755,0.2756,0.2756,0.2768,0.2768,0.2768,0.2768,0.284,0.2842,0.2844,0,0,0,0,0,0,0,0,0,0,0,0,0,0.26,0.2601,0.2689,0.269,0.2691,0.2755,0.2756,0.2756,0.2768,0.2768,0.2768,0.2767,0.2839,0.2841,0.2844,0,0,0,0,0,0,0,0,0,0,0,0,0,0.2646,0.2601,0.2689,0.2708,0.271,0.2755,0.2756,0.2756,0.2768,0.2768,0.2768,0.2767,0.2838,0.2841,0.2844,0.2869,0,0,0.2854,0.2855,0,0,0,0,0,0,0,0,0.2643,0.2648,0.2704,0.2707,0.271,0.2757,0.2751,0.2796,0.2768,0.2742,0.2768,0.2767,0.2815,0.282,0.2827,0.2872,0.2875,0.2854,0.2856,0.2857,0.2858,0,0,0,0,0,0,0,0.264,0.2646,0.2711,0.2705,0.2709,0.2723,0.2728,0.2759,0.2776,0.2744,0.2746,0.276,0.2816,0.2824,0.2829,0.2876,0.2854,0.2857,0.2859,0.286,0.3034,0.3037,0,0,0,0,0,0,0.2639,0.2643,0.2709,0.2713,0.2679,0.2725,0.2731,0.2739,0.2776,0.2782,0.276,0.2761,0.2819,0.2826,0.2832,0.2968,0.2857,0.286,0.2862,0.3031,0.3035,0.3038,0,0,0,0,0,0,0.2636,0.2644,0.2706,0.2683,0.2692,0.2727,0.2735,0.274,0.2764,0.2789,0.2794,0.2782,0.2819,0.2828,0.2876,0.2966,0.2862,0.2864,0.3028,0.3032,0.3036,0.3172,0,0,0,0,0,0,0.2633,0.2642,0.2655,0.2683,0.2694,0.2749,0.2736,0.2742,0.2774,0.2775,0.2809,0.2814,0.282,0.2872,0.2879,0.2969,0.2867,0.3025,0.303,0.3035,0.3164,0.318,0.3194,0,0,0,0,0,0.263,0.2641,0.2654,0.2663,0.2707,0.2751,0.2758,0.2778,0.2776,0.2796,0.2817,0.2814,0.2911,0.2876,0.2884,0.2977,0.3022,0.3028,0.3034,0.3157,0.3177,0.3194,0,0,0,0,0,0,0.2606,0.2645,0.266,0.2682,0.2725,0.2755,0.2775,0.279,0.2822,0.2827,0.2837,0.2845,0.2927,0.2922,0.2883,0.3041,0.2972,0.298,0.3063,0.3082,0.3096,0.3053,0.2869,0,0,0,0,0,0.2609,0.2628,0.2673,0.2694,0.2715,0.2749,0.2772,0.2794,0.2824,0.2837,0.2856,0.2893,0.2958,0.2992,0.3025,0.3103,0.309,0.3171,0.3186,0.3199,0.3169,0.3223,0.324,0.3058,0.3058,0.3058,0,0,0.2611,0.263,0.2646,0.2691,0.272,0.2775,0.2761,0.2806,0.2841,0.2842,0.2886,0.2939,0.2986,0.308,0.3119,0.309,0.3256,0.3207,0.3218,0.318,0.3231,0.3249,0.3264,0.3062,0.3061,0.3061,0,0,0.263,0.2639,0.2674,0.2713,0.2769,0.2796,0.2816,0.2861,0.2866,0.2931,0.2954,0.304,0.3114,0.3173,0.3215,0.3326,0.3327,0.3369,0.3424,0.348,0.3494,0.3507,0.3559,0.3575,0.3386,0.3386,0.3387,0,0.2645,0.2666,0.2693,0.2743,0.2766,0.2811,0.2857,0.2888,0.2941,0.2958,0.2958,0.3112,0.3156,0.329,0.3345,0.3363,0.3389,0.3359,0.3499,0.3511,0.3521,0.3571,0.3587,0.3394,0.3393,0.3392,0.3391,0,0.2692,0.2718,0.2737,0.281,0.2853,0.2887,0.2942,0.2981,0.3005,0.3048,0.3152,0.3218,0.3315,0.3377,0.3403,0.3535,0.353,0.3508,0.3451,0.3548,0.3595,0.3609,0.3404,0.3401,0.3399,0.3397,0,0,0.2711,0.2757,0.2768,0.2785,0.2873,0.2906,0.2978,0.3043,0.3089,0.3169,0.3239,0.3382,0.3432,0.3479,0.3545,0.3603,0.3738,0.3602,0.3602,0.3649,0.3875,0.3766,0.377,0.3756,0.3758,0.376,0.3894,0,0.2738,0.2785,0.2816,0.2879,0.2907,0.2961,0.3018,0.3099,0.3157,0.3242,0.3338,0.3443,0.347,0.3553,0.3624,0.3731,0.3774,0.3703,0.3775,0.3776,0.3663,0.3781,0.3487,0.3571,0.3908,0.391,0.3911,0,0.2773,0.2791,0.2824,0.2868,0.2888,0.2949,0.3027,0.3088,0.323,0.3289,0.3425,0.3501,0.3676,0.3638,0.3835,0.3803,0.383,0.3868,0.3874,0.3715,0.369,0.3519,0.3583,0.3934,0.3932,0.393,0.3929,0,0.2716,0.2792,0.2786,0.2809,0.2895,0.2921,0.2982,0.3109,0.3181,0.3333,0.3458,0.3605,0.3744,0.3811,0.3934,0.3905,0.4094,0.4063,0.3964,0.3958,0.3682,0.3646,0.4103,0.4103,0.4102,0.4102,0.4102,0,0.268,0.269,0.2762,0.2754,0.2803,0.2885,0.2954,0.3043,0.3219,0.3321,0.3492,0.3624,0.3792,0.3931,0.3972,0.4048,0.4138,0.3977,0.3985,0.3727,0.3695,0.3965,0.3947,0.4107,0.4106,0.4105,0.4104,0,0.2599,0.2626,0.2652,0.2731,0.2763,0.2808,0.2958,0.3031,0.3215,0.3369,0.3444,0.3718,0.3915,0.4045,0.4175,0.4117,0.4166,0.4126,0.3815,0.3781,0.398,0.3968,0.4059,0.4056,0.4054,0.4052,0.405,0,0.254,0.2544,0.2627,0.2644,0.2672,0.2755,0.2821,0.3008,0.3107,0.3394,0.3485,0.3749,0.387,0.4092,0.4071,0.4117,0.4175,0.3779,0.3632,0.3976,0.3976,0.3968,0.3959,0.3355,0.3347,0.3342,0.3337,0,0.2448,0.2486,0.2498,0.2572,0.2628,0.2718,0.2828,0.2928,0.3128,0.3257,0.3471,0.3588,0.3815,0.3756,0.38,0.3763,0.3762,0.3656,0.4128,0.3395,0.3318,0.3316,0.333,0.3284,0.329,0.3293,0.3296,0.3298,0.2391,0.2421,0.2457,0.2508,0.2621,0.2733,0.2693,0.2818,0.2949,0.3075,0.3293,0.3345,0.3418,0.3392,0.3316,0.3275,0.3514,0.3309,0.3325,0.3348,0.3226,0.3147,0.306,0.3064,0.3067,0.307,0.3073,0,0.2361,0.2389,0.24,0.2482,0.2534,0.2633,0.2733,0.2654,0.2675,0.2818,0.2907,0.2741,0.2736,0.2863,0.2713,0.2676,0.263,0.2567,0.2485,0.2541,0.259,0.2426,0.205,0.2046,0.2043,0.204,0,0,0.2358,0.2341,0.2345,0.2371,0.2437,0.2451,0.2453,0.2337,0.2372,0.2336,0.2321,0.2582,0.2733,0.2342,0.2306,0.2153,0.2317,0.2068,0.2896,0.2856,0.2899,0.3037,0.2851,0,0,0,0,0]},{"header":{"parameterUnit":"m.s-1","parameterCategory":2,"la1":30.2991,"la2":30.254,"lo1":-89.0895,"lo2":-89.0444,"dy":0.0017,"dx":0.0017,"nx":28,"ny":28,"refTime":"2025-08-03T03:00:00:Z","depth":"2","parameterNumber":3,"parameterNumberName":"V-component_of_CURRENTS"},"data":[0,0,0,0,0,0,0,0,0,0,0,0,0,0,0,0,0,0,0,0,0,0,0,0,0,0,0,0,0,0,0,0,0,0,0,0,0,0,0,0,0,0,0,0,0,0,0,0,0,0,0,0,0,0,0,0,0,0,0.0034,0.0033,0,-0.0029,-0.0029,-0.003,-0.008,-0.008,-0.008,-0.0081,-0.0143,-0.0145,-0.0146,0,0,0,0,0,0,0,0,0,0,0,0,0,0.0068,0.0068,0.0034,0.0033,0.0032,-0.0028,-0.0029,-0.003,-0.008,-0.008,-0.0081,-0.0081,-0.0143,-0.0144,-0.0146,0,0,0,0,0,0,0,0,0,0,0,0,0,0.0034,0.0068,0.0034,0.0001,-0.0002,-0.0028,-0.0029,-0.0031,-0.0079,-0.008,-0.0081,-0.0081,-0.0142,-0.0144,-0.0146,-0.0145,0,0,-0.0152,-0.0153,0,0,0,0,0,0,0,0,0.0036,0.0032,0.0007,0.0003,-0.0001,-0.0046,-0.004,-0.0069,-0.0079,-0.0051,-0.0081,-0.0082,-0.011,-0.0115,-0.0126,-0.0148,-0.0151,-0.0152,-0.0153,-0.0154,-0.0155,0,0,0,0,0,0,0,0.0038,0.0035,0.0008,0.0006,0.0001,-0.0025,-0.003,-0.0046,-0.0077,-0.0054,-0.0057,-0.0063,-0.0112,-0.0124,-0.0128,-0.0152,-0.0152,-0.0154,-0.0155,-0.0156,-0.0176,-0.0176,0,0,0,0,0,0,0.005,0.0037,0.001,0.0006,0.0017,-0.0025,-0.0031,-0.0032,-0.0077,-0.0084,-0.0062,-0.0065,-0.0121,-0.0126,-0.013,-0.0118,-0.0154,-0.0156,-0.0157,-0.0177,-0.0176,-0.0176,0,0,0,0,0,0,0.0052,0.0049,0.0013,0.0021,0.0014,-0.0024,-0.0025,-0.0033,-0.0043,-0.0083,-0.0091,-0.0064,-0.0121,-0.0128,-0.0138,-0.0121,-0.0157,-0.0159,-0.0178,-0.0177,-0.0176,-0.0102,0,0,0,0,0,0,0.0053,0.005,0.0055,0.0022,0.0014,0.001,-0.0025,-0.0033,-0.0045,-0.0049,-0.0087,-0.0094,-0.0122,-0.0135,-0.014,-0.0125,-0.016,-0.0178,-0.0177,-0.0176,-0.0105,-0.0099,-0.0093,0,0,0,0,0,0.0054,0.0067,0.0055,0.0052,0.0022,0.0011,0.0005,-0.0026,-0.0044,-0.0039,-0.0068,-0.0093,-0.0131,-0.0135,-0.0142,-0.0127,-0.0179,-0.0178,-0.0176,-0.0108,-0.01,-0.0093,0,0,0,0,0,0,0.0083,0.0063,0.0049,0.0054,0.0039,0.0003,0.0002,-0.0018,-0.0038,-0.0043,-0.0084,-0.0092,-0.0095,-0.012,-0.0124,-0.013,-0.016,-0.0159,-0.0106,-0.0098,-0.0092,-0.0079,-0.0162,0,0,0,0,0,0.0093,0.0098,0.0073,0.0077,0.0072,0.0039,0.003,0.0011,-0.0012,-0.0023,-0.005,-0.0077,-0.0094,-0.0103,-0.0124,-0.0124,-0.0155,-0.012,-0.0113,-0.0108,-0.0101,-0.0137,-0.0133,-0.0171,-0.0171,-0.0171,0,0,0.0104,0.0094,0.0095,0.0084,0.0066,0.0076,0.0032,0.0025,0.0033,-0.0025,-0.0023,-0.0055,-0.009,-0.0092,-0.0096,-0.0111,-0.0113,-0.0106,-0.0101,-0.0098,-0.0135,-0.0131,-0.0128,-0.017,-0.017,-0.0171,0,0,0.0137,0.0122,0.014,0.0136,0.012,0.0103,0.0107,0.0078,0.0065,0.0062,0.0022,0.0001,-0.0024,-0.0047,-0.0062,-0.0033,-0.008,-0.0041,0.0001,-0.0033,-0.003,-0.0028,-0.0058,-0.0059,-0.0038,-0.0038,-0.0038,0,0.015,0.0173,0.0143,0.0164,0.017,0.0123,0.0152,0.0132,0.0104,0.0103,0.0074,0.0031,-0.0001,-0.0005,-0.0001,-0.0018,-0.0047,-0.0022,-0.0024,-0.0023,-0.0022,-0.0054,-0.0056,-0.0034,-0.0035,-0.0035,-0.0036,0,0.0203,0.022,0.0231,0.0245,0.0247,0.0262,0.0238,0.0235,0.021,0.0189,0.0173,0.0118,0.0095,0.0076,0.0045,0.0039,0.0014,-0.0012,-0.0041,-0.0014,-0.0049,-0.0052,-0.0029,-0.003,-0.0032,-0.0032,0,0,0.0242,0.0265,0.0271,0.0299,0.0295,0.0309,0.032,0.0323,0.0347,0.0289,0.0306,0.0247,0.0206,0.0186,0.0135,0.0095,0.0072,0.0048,0.0044,0.0022,-0.0003,-0.0037,-0.0045,0.0042,0.0042,0.0042,-0.0028,0,0.0295,0.0357,0.0351,0.0415,0.0449,0.0423,0.0444,0.0437,0.0423,0.0426,0.0343,0.0338,0.0251,0.0245,0.0188,0.0116,0.0065,0.0094,-0.0029,-0.0033,-0.0063,-0.0049,-0.0013,-0.0073,-0.0032,-0.0032,-0.0033,0,0.0356,0.0394,0.0463,0.0517,0.0529,0.0554,0.0596,0.0611,0.059,0.0583,0.0541,0.0475,0.0414,0.0332,0.0198,0.0221,0.0113,0.0036,0.0031,-0.0029,-0.0074,-0.0096,-0.0082,-0.004,-0.0039,-0.0039,-0.0038,0,0.0415,0.0477,0.0539,0.0556,0.06,0.0627,0.0649,0.0655,0.0704,0.0682,0.0721,0.0605,0.0578,0.0425,0.0253,0.0229,0.0099,0.0051,-0.009,-0.0094,-0.0101,-0.0105,-0.0062,-0.0062,-0.0062,-0.0061,-0.0061,0,0.0482,0.0535,0.0572,0.0611,0.0707,0.0697,0.0792,0.0805,0.0838,0.0913,0.0806,0.0841,0.0599,0.0489,0.0304,0.0109,0.0137,-0.0079,-0.0113,-0.0074,-0.0075,-0.0078,-0.0079,-0.0064,-0.0063,-0.0063,-0.0062,0,0.0537,0.0556,0.0641,0.0703,0.0738,0.0803,0.0911,0.0982,0.1003,0.1099,0.1101,0.1025,0.0886,0.0641,0.04,0.0202,0.0004,-0.0082,-0.0021,-0.0048,-0.0183,-0.018,-0.0243,-0.0244,-0.0246,-0.0247,-0.0248,0,0.057,0.0613,0.0721,0.0793,0.0828,0.0928,0.1011,0.1064,0.1161,0.1224,0.1291,0.1175,0.1108,0.0751,0.0398,0.0065,0.0013,-0.0144,-0.0198,-0.0175,-0.0202,-0.0196,-0.019,-0.0176,-0.0176,-0.0177,-0.0177,0,0.0643,0.067,0.0747,0.0887,0.099,0.1134,0.1257,0.1368,0.1431,0.1499,0.1571,0.1507,0.1169,0.0831,0.0358,0.0132,-0.0091,-0.0163,-0.014,-0.0138,-0.0118,-0.0143,-0.0138,-0.018,-0.0179,-0.0179,-0.0179,-0.0179,0.0698,0.0773,0.0866,0.1004,0.112,0.1311,0.1452,0.158,0.1728,0.182,0.1755,0.1652,0.1263,0.0662,0.0295,-0.0096,-0.01,-0.0266,-0.0262,-0.0258,-0.024,-0.0225,-0.0302,-0.0303,-0.0303,-0.0303,-0.0304,0,0.077,0.0856,0.0987,0.1159,0.1286,0.1351,0.1595,0.1726,0.1895,0.1916,0.1919,0.1523,0.1146,0.0731,0.0154,-0.0213,-0.0229,-0.0324,-0.0263,-0.0258,-0.0255,-0.0235,-0.0296,-0.0297,-0.0298,-0.0299,0,0,0.0815,0.0952,0.103,0.1261,0.1378,0.1596,0.1747,0.1907,0.1984,0.1993,0.1892,0.1751,0.124,0.0823,0.0353,0.0037,-0.0029,-0.003,-0.0002,0.0131,0.0139,-0.0193,-0.0154,0,0,0,0,0]}],[{"header":{"parameterUnit":"m.s-1","parameterCategory":2,"la1":30.2991,"la2":30.254,"lo1":-89.0895,"lo2":-89.0444,"dy":0.0017,"dx":0.0017,"nx":28,"ny":28,"refTime":"2025-08-03T03:00:00:Z","depth":"4","parameterNumber":2,"parameterNumberName":"U-component_of_CURRENTS"},"data":[0,0,0,0,0,0,0,0,0,0,0,0,0,0,0,0,0,0,0,0,0,0,0,0,0,0,0,0,0,0,0,0,0,0,0,0,0,0,0,0,0,0,0,0,0,0,0,0,0,0,0,0,0,0,0,0,0,0,0.1679,0.168,0,0.1725,0.1725,0.1725,0.1772,0.1773,0.1774,0.1775,0.1791,0.179,0.179,0,0,0,0,0,0,0,0,0,0,0,0,0,0.1567,0.1569,0.1679,0.168,0.1681,0.1725,0.1725,0.1725,0.1772,0.1773,0.1775,0.1776,0.1791,0.1791,0.179,0,0,0,0,0,0,0,0,0,0,0,0,0,0.161,0.1569,0.1679,0.1714,0.1717,0.1725,0.1725,0.1725,0.1772,0.1773,0.1775,0.1776,0.1791,0.1791,0.179,0.1752,0,0,0.1787,0.1787,0,0,0,0,0,0,0,0,0.1608,0.1614,0.1707,0.1711,0.1716,0.1749,0.1692,0.1734,0.1771,0.1746,0.1775,0.1777,0.1776,0.1777,0.1775,0.1752,0.1753,0.1787,0.1786,0.1786,0.1786,0,0,0,0,0,0,0,0.1605,0.1612,0.1693,0.1709,0.1714,0.1705,0.1713,0.1699,0.1747,0.1748,0.1753,0.1765,0.1778,0.1776,0.1776,0.1753,0.1787,0.1786,0.1786,0.1785,0.1846,0.1848,0,0,0,0,0,0,0.1611,0.1609,0.1691,0.1694,0.167,0.1706,0.1715,0.1733,0.1748,0.1754,0.1764,0.1767,0.1776,0.1777,0.1776,0.1862,0.1786,0.1785,0.1785,0.1844,0.1847,0.1849,0,0,0,0,0,0,0.1608,0.1618,0.1689,0.1656,0.1665,0.1707,0.1726,0.1733,0.1768,0.1761,0.1765,0.1798,0.1778,0.1778,0.1798,0.1858,0.1785,0.1784,0.1842,0.1845,0.1848,0.1949,0,0,0,0,0,0,0.1605,0.1617,0.1643,0.1657,0.1668,0.1713,0.1725,0.1733,0.1773,0.1779,0.179,0.1792,0.1779,0.18,0.1797,0.1855,0.1783,0.1839,0.1843,0.1847,0.1943,0.1955,0.1965,0,0,0,0,0,0.1601,0.1622,0.1644,0.1655,0.1699,0.1714,0.1718,0.1749,0.1774,0.1787,0.1804,0.1793,0.1825,0.18,0.1797,0.1856,0.1837,0.1842,0.1847,0.1937,0.1952,0.1965,0,0,0,0,0,0,0.1587,0.163,0.1654,0.169,0.1713,0.1724,0.1745,0.1766,0.1789,0.1808,0.1801,0.1803,0.1844,0.1831,0.1804,0.1887,0.1837,0.1841,0.1907,0.1921,0.1932,0.1914,0.1783,0,0,0,0,0,0.1596,0.163,0.166,0.1692,0.1706,0.1732,0.175,0.1774,0.1791,0.1806,0.182,0.1839,0.1854,0.1874,0.1872,0.1907,0.1892,0.195,0.1961,0.1971,0.1956,0.1993,0.2006,0.1865,0.1865,0.1865,0,0,0.16,0.1631,0.165,0.1692,0.1713,0.1736,0.1746,0.1783,0.1812,0.18,0.1851,0.1867,0.1867,0.1912,0.1933,0.1917,0.2007,0.1977,0.1986,0.1964,0.1999,0.2013,0.2025,0.1868,0.1868,0.1867,0,0,0.1605,0.1652,0.1674,0.17,0.1746,0.176,0.178,0.1817,0.1845,0.1885,0.1897,0.1942,0.1967,0.1986,0.1995,0.2063,0.2055,0.2093,0.215,0.2188,0.2199,0.2209,0.2221,0.2231,0.2114,0.2114,0.2114,0,0.1611,0.1643,0.168,0.1708,0.1732,0.1776,0.1797,0.1828,0.1874,0.1899,0.1916,0.1985,0.1995,0.2047,0.2091,0.2088,0.2106,0.2099,0.2202,0.2211,0.2219,0.2229,0.2239,0.2119,0.2119,0.2118,0.2118,0,0.1625,0.1661,0.1675,0.1728,0.1759,0.1785,0.1832,0.188,0.193,0.1961,0.2031,0.2056,0.2098,0.2135,0.2138,0.2221,0.2213,0.2201,0.2165,0.224,0.2246,0.2254,0.2127,0.2125,0.2124,0.2122,0,0,0.16,0.1669,0.1679,0.1698,0.1773,0.1789,0.1857,0.1907,0.1955,0.2025,0.2085,0.2146,0.2183,0.2195,0.2226,0.228,0.2371,0.2289,0.2289,0.2296,0.2457,0.2327,0.2323,0.2399,0.2401,0.2403,0.2442,0,0.1594,0.1631,0.168,0.1719,0.1731,0.1807,0.1857,0.1925,0.199,0.2064,0.2124,0.2188,0.22,0.2254,0.2307,0.235,0.2397,0.236,0.2386,0.2385,0.2256,0.2329,0.2408,0.2448,0.245,0.2451,0.2452,0,0.158,0.1605,0.1636,0.1699,0.1716,0.1762,0.1854,0.1911,0.2025,0.2085,0.2173,0.2224,0.2318,0.2322,0.2415,0.2404,0.2436,0.2464,0.2466,0.2305,0.2269,0.2354,0.2467,0.2466,0.2464,0.2463,0.2463,0,0.1506,0.1571,0.1589,0.1614,0.1699,0.1744,0.1808,0.192,0.1983,0.2116,0.219,0.2277,0.2359,0.2405,0.248,0.2466,0.2576,0.2547,0.2448,0.2438,0.2497,0.2486,0.2602,0.2602,0.2602,0.2602,0.2602,0,0.1455,0.1472,0.1561,0.1569,0.1612,0.1702,0.1771,0.1862,0.1999,0.2078,0.2201,0.2276,0.2397,0.2479,0.2503,0.2502,0.2589,0.2452,0.2443,0.2541,0.2534,0.2504,0.2492,0.2603,0.2603,0.2602,0.2602,0,0.1362,0.1418,0.1442,0.1537,0.1573,0.1611,0.1755,0.1808,0.1961,0.2079,0.2137,0.2314,0.2418,0.2508,0.2601,0.2527,0.2538,0.2519,0.2625,0.2621,0.2361,0.2355,0.2372,0.2368,0.2364,0.2361,0.2359,0,0.1306,0.1309,0.1408,0.1431,0.1478,0.1553,0.1607,0.177,0.1841,0.2076,0.2122,0.2304,0.2398,0.2417,0.251,0.2529,0.2513,0.2473,0.2398,0.235,0.234,0.2339,0.2337,0.2353,0.2352,0.2351,0.235,0,0.1193,0.1248,0.1275,0.1334,0.1389,0.1429,0.1531,0.158,0.1776,0.1942,0.207,0.2147,0.227,0.2336,0.2395,0.2397,0.2463,0.2435,0.2441,0.2369,0.2328,0.232,0.2323,0.2338,0.234,0.2341,0.2342,0,0.1118,0.1113,0.1169,0.1219,0.1272,0.1284,0.1356,0.1457,0.1558,0.1848,0.1882,0.2082,0.2255,0.227,0.2309,0.2319,0.2269,0.2159,0.2179,0.2193,0.2117,0.2037,0.195,0,0,0,0,0,0.1034,0.1022,0.1049,0.108,0.1134,0.1174,0.1292,0.1379,0.159,0.1641,0.1767,0.1881,0.1982,0.2074,0.2049,0.2197,0.2251,0.2151,0.2127,0.2269,0.2284,0.2212,0,0,0,0,0,0,0.0967,0.098,0.1,0.0957,0.097,0.1003,0.1077,0.1221,0.1265,0.1504,0.158,0.175,0.1881,0.1994,0.2013,0.2038,0.1976,0.2279,0.2273,0.2261,0.2274,0.2286,0.2217,0,0,0,0,0]},{"header":{"parameterUnit":"m.s-1","parameterCategory":2,"la1":30.2991,"la2":30.254,"lo1":-89.0895,"lo2":-89.0444,"dy":0.0017,"dx":0.0017,"nx":28,"ny":28,"refTime":"2025-08-03T03:00:00:Z","depth":"4","parameterNumber":3,"parameterNumberName":"V-component_of_CURRENTS"},"data":[0,0,0,0,0,0,0,0,0,0,0,0,0,0,0,0,0,0,0,0,0,0,0,0,0,0,0,0,0,0,0,0,0,0,0,0,0,0,0,0,0,0,0,0,0,0,0,0,0,0,0,0,0,0,0,0,0,0,0.0037,0.0037,0,0.0001,0.0001,0.0,-0.003,-0.003,-0.0031,-0.0031,-0.0058,-0.0059,-0.0059,0,0,0,0,0,0,0,0,0,0,0,0,0,0.0061,0.0061,0.0037,0.0037,0.0036,0.0001,0.0001,0.0,-0.003,-0.003,-0.0031,-0.0031,-0.0058,-0.0059,-0.0059,0,0,0,0,0,0,0,0,0,0,0,0,0,0.0041,0.0061,0.0037,0.0017,0.0015,0.0001,0.0001,0.0,-0.003,-0.003,-0.0031,-0.0031,-0.0058,-0.0059,-0.0059,-0.0053,0,0,-0.0061,-0.0061,0,0,0,0,0,0,0,0,0.0042,0.004,0.0021,0.0018,0.0016,-0.001,-0.0001,-0.0017,-0.003,-0.0013,-0.0031,-0.0032,-0.0041,-0.0043,-0.0049,-0.0054,-0.0055,-0.0061,-0.0062,-0.0062,-0.0062,0,0,0,0,0,0,0,0.0043,0.0041,0.0023,0.002,0.0017,0.0003,-0.0,-0.0004,-0.0023,-0.0014,-0.0017,-0.0021,-0.0042,-0.0048,-0.005,-0.0056,-0.0061,-0.0062,-0.0062,-0.0062,-0.0079,-0.0079,0,0,0,0,0,0,0.0049,0.0043,0.0024,0.0022,0.0028,0.0003,-0.0,-0.0001,-0.0024,-0.0028,-0.002,-0.0022,-0.0047,-0.0049,-0.0051,-0.0045,-0.0062,-0.0062,-0.0063,-0.0079,-0.0079,-0.0079,0,0,0,0,0,0,0.005,0.0048,0.0026,0.0031,0.0027,0.0004,0.0003,-0.0002,-0.0007,-0.0028,-0.0032,-0.0021,-0.0047,-0.005,-0.0055,-0.0046,-0.0063,-0.0063,-0.0079,-0.0079,-0.0079,-0.0034,0,0,0,0,0,0,0.0051,0.0049,0.0053,0.0032,0.0027,0.0025,0.0003,-0.0002,-0.0009,-0.0012,-0.003,-0.0033,-0.0048,-0.0054,-0.0056,-0.0048,-0.0064,-0.0078,-0.0079,-0.0079,-0.0035,-0.0032,-0.003,0,0,0,0,0,0.0052,0.006,0.0053,0.0051,0.0032,0.0026,0.0022,0.0003,-0.0008,-0.0005,-0.0023,-0.0033,-0.0057,-0.0054,-0.0056,-0.0048,-0.0078,-0.0079,-0.0079,-0.0036,-0.0033,-0.003,0,0,0,0,0,0,0.007,0.0057,0.0049,0.0052,0.0043,0.0021,0.0021,0.0008,-0.0003,-0.0007,-0.0029,-0.0033,-0.0036,-0.005,-0.0047,-0.0056,-0.0071,-0.0071,-0.0038,-0.0035,-0.0032,-0.0016,-0.0064,0,0,0,0,0,0.0077,0.0081,0.0064,0.0067,0.0064,0.0044,0.0039,0.0027,0.0012,0.0006,-0.0007,-0.0025,-0.0038,-0.0042,-0.0055,-0.0053,-0.0084,-0.0052,-0.005,-0.0047,-0.0037,-0.0087,-0.0088,-0.0079,-0.0079,-0.0079,0,0,0.0084,0.0078,0.0079,0.0072,0.0062,0.0071,0.004,0.0036,0.0044,0.0007,0.0013,-0.0013,-0.0037,-0.004,-0.0042,-0.0048,-0.0067,-0.0047,-0.0045,-0.0036,-0.0087,-0.0088,-0.0089,-0.0079,-0.0079,-0.0079,0,0,0.0107,0.0096,0.011,0.0108,0.0099,0.0089,0.0092,0.0074,0.0066,0.0066,0.0036,0.0014,0.0004,-0.0017,-0.0028,-0.0018,-0.0053,-0.0023,0.0008,-0.0041,-0.0042,-0.0043,-0.0087,-0.0092,-0.002,-0.002,-0.002,0,0.0117,0.0136,0.0113,0.0129,0.0138,0.0103,0.0128,0.0114,0.0097,0.0098,0.0076,0.0039,0.0015,0.0006,0.0004,-0.001,-0.0043,0.0,-0.0037,-0.0039,-0.0041,-0.0085,-0.0092,-0.0018,-0.0018,-0.0018,-0.0018,0,0.0155,0.0172,0.018,0.0193,0.0197,0.021,0.0194,0.0192,0.0175,0.016,0.0143,0.0095,0.0077,0.0056,0.0035,0.0012,-0.0009,-0.0029,-0.0042,-0.0039,-0.0086,-0.0094,-0.0014,-0.0015,-0.0016,-0.0016,0,0,0.0181,0.0204,0.021,0.0236,0.0236,0.0247,0.0257,0.0264,0.0276,0.0234,0.0241,0.019,0.0155,0.0139,0.0096,0.0046,-0.0006,0.0007,0.0004,-0.003,-0.0113,-0.0109,-0.0118,-0.0035,-0.0036,-0.0037,-0.0142,0,0.0224,0.0277,0.0274,0.033,0.036,0.0341,0.036,0.0355,0.0336,0.033,0.0261,0.0249,0.019,0.0177,0.0117,0.0024,-0.0024,0.0025,-0.0116,-0.012,-0.0112,-0.0125,-0.004,-0.0148,-0.015,-0.0151,-0.0152,0,0.027,0.0304,0.0366,0.0415,0.0426,0.0451,0.048,0.049,0.0462,0.0445,0.0403,0.0351,0.0277,0.0223,0.0065,0.0097,0.0005,-0.0077,-0.0083,-0.0096,-0.013,-0.0153,-0.0166,-0.0165,-0.0164,-0.0163,-0.0162,0,0.0315,0.0372,0.043,0.0446,0.0487,0.0514,0.0534,0.0529,0.0555,0.0516,0.0521,0.0419,0.0373,0.0234,0.0067,0.0065,-0.0116,-0.0139,-0.0221,-0.0222,-0.0214,-0.0211,-0.024,-0.024,-0.0239,-0.0239,-0.0239,0,0.0366,0.0414,0.0459,0.0493,0.0573,0.0573,0.0643,0.064,0.0647,0.0678,0.0586,0.0568,0.0372,0.0247,0.0089,-0.0092,-0.01,-0.0215,-0.0248,-0.0193,-0.0187,-0.022,-0.0216,-0.0243,-0.0242,-0.0241,-0.0241,0,0.0401,0.0429,0.0504,0.0567,0.0598,0.0651,0.0732,0.0776,0.0764,0.0797,0.0792,0.0677,0.0505,0.0307,0.0071,-0.0049,-0.0231,-0.0287,-0.0209,-0.0237,-0.031,-0.0302,-0.0388,-0.0389,-0.039,-0.039,-0.0391,0,0.0421,0.0462,0.0562,0.0619,0.0653,0.0738,0.0804,0.0835,0.0879,0.0858,0.0873,0.0733,0.063,0.0305,0.0081,-0.0213,-0.025,-0.0337,-0.0328,-0.0301,-0.0325,-0.0317,-0.0309,-0.0392,-0.0392,-0.0392,-0.0392,0,0.0461,0.0495,0.0558,0.068,0.0767,0.0864,0.0949,0.0994,0.1017,0.1014,0.0944,0.0777,0.0584,0.0315,0.0092,-0.0122,-0.0283,-0.0344,-0.0344,-0.0337,-0.0306,-0.0327,-0.0319,-0.0394,-0.0394,-0.0394,-0.0393,0,0.0489,0.0543,0.0631,0.0738,0.0847,0.0944,0.0993,0.1039,0.1081,0.1052,0.1019,0.0804,0.0676,0.0362,0.0147,-0.0057,-0.0109,-0.0169,-0.0179,-0.0179,-0.0091,-0.0019,-0.0047,0,0,0,0,0,0.0513,0.0582,0.0684,0.0803,0.0906,0.0971,0.1071,0.1104,0.113,0.11,0.1064,0.0883,0.0562,0.0413,0.0211,0.0124,-0.0152,-0.0119,-0.0227,-0.0406,-0.0403,-0.0336,0,0,0,0,0,0,0.0533,0.0629,0.0689,0.083,0.091,0.1034,0.1097,0.1118,0.1097,0.1081,0.0913,0.0834,0.0518,0.0675,0.0205,0.0141,0.0047,-0.027,-0.0274,-0.0407,-0.0405,-0.0403,-0.0333,0,0,0,0,0]}]]